CW0297 Weather Reports


time (UTC)temp
C
wind
direction
speed
KPH
gust
KPH
rain 1hr
cm
rain 24hr
cm
rain mn
cm
humidity
%
barometer
mb
20260507161555 27 295 0.0 6.4 0.00 0.00 0.00 22 1014.3
20260507160056 26 207 0.0 4.8 0.00 0.00 0.00 22 1014.6
20260507154559 25 167 3.2 6.4 0.00 0.00 0.00 24 1014.6
20260507153054 25 197 1.6 6.4 0.00 0.00 0.00 26 1014.6
20260507151549 25 193 3.2 6.4 0.00 0.00 0.00 28 1014.5
20260507150053 24 198 1.6 4.8 0.00 0.00 0.00 27 1014.6
20260507144551 23 126 1.6 4.8 0.00 0.00 0.00 28 1014.6
20260507143055 23 226 1.6 4.8 0.00 0.00 0.00 28 1014.5
20260507141552 22 80 1.6 8.0 0.00 0.00 0.00 28 1014.5
20260507140053 21 77 4.8 8.0 0.00 0.00 0.00 30 1014.3
20260507134550 20 30 3.2 9.7 0.00 0.00 0.00 32 1014.3
20260507133051 20 59 3.2 8.0 0.00 0.00 0.00 32 1014.1
20260507131608 19 86 1.6 9.7 0.00 0.00 0.00 32 1013.9
20260507130049 18 353 8.0 12.9 0.00 0.00 0.00 33 1013.7
20260507124547 18 344 6.4 11.3 0.00 0.00 0.00 33 1013.9
20260507123046 18 356 4.8 9.7 0.00 0.00 0.00 32 1013.8
20260507121549 18 65 3.2 8.0 0.00 0.00 0.00 33 1013.8
20260507120054 18 8 0.0 4.8 0.00 0.00 0.00 33 1013.7
20260507114549 19 16 4.8 11.3 0.00 0.00 0.00 32 1013.7
20260507113046 18 6 0.0 6.4 0.00 0.00 0.00 33 1013.8
20260507111556 18 6 3.2 9.7 0.00 0.00 0.00 32 1013.8
20260507110050 19 359 3.2 6.4 0.00 0.00 0.00 32 1013.8
20260507104548 19 23 3.2 8.0 0.00 0.00 0.00 32 1014.0
20260507103047 18 8 4.8 9.7 0.00 0.00 0.00 33 1014.1
20260507101549 18 18 1.6 3.2 0.00 0.00 0.00 33 1014.2
20260507100047 18 2 1.6 3.2 0.00 0.00 0.00 33 1014.2
20260507094551 19 0 0.0 3.2 0.00 0.00 0.00 33 1014.5
20260507093052 19 0 1.6 4.8 0.00 0.00 0.00 34 1014.5
20260507091552 19 8 0.0 3.2 0.00 0.00 0.00 34 1014.6
20260507090049 19 0 0.0 1.6 0.00 0.00 0.00 34 1014.6
20260507084549 20 0 0.0 1.6 0.00 0.00 0.00 33 1014.7
20260507083050 20 0 0.0 3.2 0.00 0.00 0.00 32 1014.7
20260507081550 20 11 0.0 1.6 0.00 0.00 0.00 32 1014.9
20260507080105 20 44 0.0 1.6 0.00 0.00 0.00 31 1014.9
20260507074551 21 49 0.0 3.2 0.00 0.00 0.00 31 1015.0
20260507073050 20 0 0.0 1.6 0.00 0.00 0.00 33 1014.8
20260507071603 20 0 0.0 0.0 0.00 0.00 0.00 33 1014.7
20260507070052 21 0 0.0 1.6 0.00 0.00 0.00 32 1014.8
20260507064550 21 23 1.6 3.2 0.00 0.00 0.00 32 1014.7
20260507063047 21 24 0.0 1.6 0.00 0.00 0.00 32 1014.8
20260507061546 21 0 0.0 1.6 0.00 0.00 0.00 31 1014.7
20260507060045 21 0 0.0 1.6 0.00 0.00 0.00 30 1014.8
20260507054547 22 0 0.0 1.6 0.00 0.00 0.00 30 1014.7
20260507053114 22 281 0.0 1.6 0.00 0.00 0.00 29 1014.7
20260507051600 22 0 0.0 0.0 0.00 0.00 0.00 29 1014.7
20260507050047 22 0 0.0 1.6 0.00 0.00 0.00 28 1014.5
20260507044547 23 0 0.0 1.6 0.00 0.00 0.00 27 1014.4
20260507043054 23 0 0.0 0.0 0.00 0.00 0.00 25 1014.3
20260507041557 23 0 0.0 1.6 0.00 0.00 0.00 24 1014.1
20260507040046 24 0 0.0 1.6 0.00 0.00 0.00 24 1014.0
20260507034546 24 264 0.0 1.6 0.00 0.00 0.00 23 1013.9
20260507033052 25 0 0.0 1.6 0.00 0.00 0.00 22 1013.8
20260507031554 25 248 0.0 1.6 0.00 0.00 0.00 22 1013.6
20260507030051 25 272 0.0 4.8 0.00 0.00 0.00 22 1013.4
20260507024559 26 284 1.6 4.8 0.00 0.00 0.00 21 1013.2
20260507023051 26 0 3.2 6.4 0.00 0.00 0.00 21 1013.1
20260507021551 26 269 3.2 8.0 0.00 0.00 0.00 20 1013.0
20260507020049 27 263 4.8 9.7 0.00 0.00 0.00 20 1012.9
20260507014601 27 272 4.8 11.3 0.00 0.00 0.00 19 1012.8
20260507013051 27 259 1.6 9.7 0.00 0.00 0.00 19 1012.8
20260507011549 28 291 3.2 8.0 0.00 0.00 0.00 19 1012.9
20260507010059 28 317 4.8 11.3 0.00 0.00 0.00 19 1012.8
20260507004601 28 243 1.6 6.4 0.00 0.00 0.00 19 1012.7
20260507003049 28 302 6.4 11.3 0.00 0.00 0.00 19 1012.7
20260507001550 28 295 3.2 11.3 0.00 0.00 0.00 19 1012.7
20260507000051 28 266 4.8 11.3 0.00 0.00 0.00 19 1012.7
20260506234550 28 240 3.2 12.9 0.00 0.00 0.00 20 1012.7
20260506233052 28 122 4.8 17.7 0.00 0.00 0.00 20 1012.8
20260506231553 28 276 4.8 12.9 0.00 0.00 0.00 20 1012.8
20260506230049 28 276 4.8 9.7 0.00 0.00 0.00 20 1012.9
20260506224543 27 254 8.0 16.1 0.00 0.00 0.00 20 1013.1
20260506223044 27 13 4.8 9.7 0.00 0.00 0.00 20 1013.4
20260506221552 27 295 4.8 16.1 0.00 0.00 0.00 21 1013.6
20260506220052 27 269 6.4 11.3 0.00 0.00 0.00 21 1013.8
20260506214551 27 271 4.8 19.3 0.00 0.00 0.00 21 1014.0
20260506213042 26 347 4.8 17.7 0.00 0.00 0.00 22 1014.3
20260506211550 26 198 3.2 14.5 0.00 0.00 0.00 21 1014.5
20260506210048 26 255 6.4 16.1 0.00 0.00 0.00 21 1014.7
20260506204552 27 176 8.0 17.7 0.00 0.00 0.00 22 1015.0
20260506203052 27 307 1.6 12.9 0.00 0.00 0.00 22 1015.2
20260506201549 26 353 3.2 17.7 0.00 0.00 0.00 23 1015.3
20260506200100 26 217 3.2 11.3 0.00 0.00 0.00 22 1015.4
20260506194551 26 224 4.8 12.9 0.00 0.00 0.00 22 1015.5
20260506193050 26 313 1.6 14.5 0.00 0.00 0.00 23 1015.7
20260506191559 25 227 4.8 12.9 0.00 0.00 0.00 23 1015.8
20260506190046 26 232 1.6 6.4 0.00 0.00 0.00 24 1016.1
20260506184546 25 237 4.8 16.1 0.00 0.00 0.00 25 1016.3
20260506183053 25 91 3.2 12.9 0.00 0.00 0.00 25 1016.5
20260506181559 24 207 3.2 14.5 0.00 0.00 0.00 26 1016.6
20260506180113 24 265 1.6 11.3 0.00 0.00 0.00 28 1016.7
20260506174547 23 87 3.2 12.9 0.00 0.00 0.00 29 1016.8
20260506173109 23 261 0.0 16.1 0.00 0.00 0.00 29 1016.8
20260506171549 22 254 6.4 12.9 0.00 0.00 0.00 29 1016.8
20260506170050 23 224 1.6 11.3 0.00 0.00 0.00 29 1016.7
20260506164548 22 200 1.6 11.3 0.00 0.00 0.00 31 1016.8
20260506163052 22 259 1.6 6.4 0.00 0.00 0.00 31 1016.7